This demonstration page uses our WeatherBlox Daily Observations layout. Learn more.

Left ArrowRight Arrow

34.74481, -87.66753

Hourly Observations for October 22, 2016

Temp ( °F °C ) Dew Point ( °F °C ) Humidity (%) Winds ( mph kmh ) Pressure ( in mb ) Visibility ( mi km ) Precip ( " mm )
12:53 am 00:53 Clear 50 10 37 2.8 61 61 N 5 7 30.11 1020 10 16 0.00 0.00
1:53 am 01:53 Clear 49 9.4 38 3.3 66 66 N 6 9 30.14 1021 10 16 0.00 0.00
2:53 am 02:53 Clear 48 8.9 38 3.3 68 68 NNW 6 9 30.14 1021 10 16 0.00 0.00
3:53 am 03:53 Clear 46 7.8 37 2.8 71 71 Calm 30.16 1021 10 16 0.00 0.00
4:53 am 04:53 Clear 45 7.2 37 2.8 74 74 Calm 30.17 1022 10 16 0.00 0.00
5:53 am 05:53 Clear 41 5 35 1.7 79 79 Calm 30.19 1022 10 16 0.00 0.00
6:53 am 06:53 Clear 41 5 35 1.7 79 79 Calm 30.20 1023 10 16 0.00 0.00
7:53 am 07:53 Sunny 44 6.7 39 3.9 83 83 W 5 7 30.21 1023 10 16 0.00 0.00
8:53 am 08:53 Sunny 50 10 41 5 71 71 WNW 3 6 30.22 1023 10 16 0.00 0.00
9:53 am 09:53 Sunny 58 14.4 39 3.9 50 50 VRB 7 11 30.22 1023 10 16 0.00 0.00
10:53 am 10:53 Sunny 61 16.1 36 2.2 39 39 VRB 6 9 30.22 1023 10 16 0.00 0.00
11:53 am 11:53 Sunny 64 17.8 35 1.7 34 34 NNE 6 9 30.20 1023 10 16 0.00 0.00
12:53 pm 12:53 Sunny 69 20.6 32 0 25 25 VRB 7 11 30.18 1022 10 16 0.00 0.00
1:53 pm 13:53 Sunny 68 20 31 -0.6 25 25 NNW 10 17 30.16 1021 10 16 0.00 0.00
2:53 pm 14:53 Sunny 70 21.1 32 0 25 25 VRB 5 7 30.14 1021 10 16 0.00 0.00
3:53 pm 15:53 Sunny 69 20.6 31 -0.6 24 24 WNW 7 11 30.14 1021 10 16 0.00 0.00
4:53 pm 16:53 Sunny 69 20.6 31 -0.6 24 24 NNW 5 7 30.13 1020 10 16 0.00 0.00
5:53 pm 17:53 Sunny 65 18.3 30 -1.1 27 27 NNW 3 6 30.13 1020 10 16 0.00 0.00
6:53 pm 18:53 Clear 56 13.3 33 0.6 42 42 Calm 30.15 1021 10 16 0.00 0.00
7:53 pm 19:53 Clear 53 11.7 34 1.1 48 48 Calm 30.15 1021 10 16 0.00 0.00
8:53 pm 20:53 Clear 50 10 35 1.7 57 57 Calm 30.16 1021 10 16 0.00 0.00
9:53 pm 21:53 Clear 48 8.9 35 1.7 61 61 Calm 30.17 1022 10 16 0.00 0.00
10:53 pm 22:53 Clear 47 8.3 35 1.7 63 63 Calm 30.18 1022 10 16 0.00 0.00
11:53 pm 23:53 Clear 41 5 35 1.7 79 79 Calm 30.19 1022 10 16 0.00 0.00

Powered by AerisWeather